Temp
14 15 14 14 14 14 14 13 13 12 12 12 11 12 12 12 12 11 11 10 10 10 10 9 9 9 9 9 10 10 11 12 13 13 13 13 14 15 15 16 16 16 17
12 13 14 15 15 15 14 13 13 13 12 12 11 10 10 10 10 10 10 10 10 9 8 8 8 8 8 8 9 9 10 11 12 12 12 10 13 14 15 15 15 15 15
13 13 14 15 14 14 14 13 13 12 12 12 11 11 10 10 10 10 10 9 9 8 8 8 7 7 6 6 7 8 9 10 11 12 11 12 12 12 14 14 14 14 14
14 14 15 15 15 15 14 14 13 13 12 11 11 10 9 8 9 9 8 8 8 8 8 7 6 6 6 6 7 7 8 9 10 11 12 11 11 12 12 14 14 14 14
15 14 15 15 15 15 15 14 13 13 12 11 11 10 10 9 9 8 8 8 8 7 7 7 6 6 6 6 7 7 8 9 10 10 10 10 11 11 10 9 10 12 13
12 13 15 16 16 15 15 15 14 13 12 11 11 10 10 9 8 8 8 7 7 7 7 6 6 6 6 7 7 7 8 9 9 10 10 10 9 9 9 8 9 9 11
11 11 11 13 14 15 15 15 14 14 13 12 11 11 10 9 9 8 8 7 7 7 6 6 6 6 6 7 7 7 8 9 9 9 10 10 10 10 10 9 9 8 10
10 10 12 13 14 14 14 15 15 14 13 13 12 11 10 10 9 8 8 7 7 6 6 6 6 6 6 6 6 7 7 8 8 8 9 9 10 10 10 10 9 8 9
10 10 12 13 14 14 14 14 14 14 14 13 12 11 11 10 9 8 7 7 7 6 6 6 6 6 6 6 6 6 7 7 7 7 8 8 10 10 10 10 10 9 8
10 10 11 13 14 14 13 14 14 13 13 13 12 11 10 10 9 8 7 7 7 6 6 6 5 5 5 6 6 6 7 7 7 7 7 7 7 8 9 10 10 10 9
10 10 11 13 14 14 14 13 13 13 13 12 12 11 10 10 9 8 7 7 7 6 6 6 5 5 5 5 5 5 5 6 6 6 6 6 7 7 7 7 7 8 9
10 9 11 13 13 13 14 14 13 13 13 12 12 11 10 9 9 8 8 7 7 6 6 6 5 5 5 5 5 5 5 5 5 4 4 5 5 5 6 6 6 6 7
10 10 11 11 12 13 13 13 13 13 12 12 11 11 10 9 9 8 8 7 7 6 6 5 5 5 5 5 5 5 5 5 4 4 4 3 4 4 5 5 5 6 6
10 10 9 10 11 12 12 12 13 13 12 12 11 10 10 9 8 8 7 7 6 6 6 5 5 5 4 4 4 4 4 4 4 3 2 2 3 4 4 4 5 5 6
11 10 9 9 11 11 11 12 12 12 12 11 11 10 10 9 8 8 7 7 6 6 5 5 5 4 4 4 4 3 3 3 2 2 2 3 3 4 4 4 4 4 5
10 10 10 10 10 10 10 10 11 11 11 11 11 10 9 9 8 8 7 7 6 6 5 5 5 4 4 4 3 3 2 2 1 1 2 3 3 3 3 3 3 4 5
10 10 9 9 9 9 9 9 9 10 10 10 10 10 9 9 8 8 7 6 6 6 5 5 4 4 4 3 3 2 2 1 1 1 2 2 2 2 2 2 2 3 3
9 9 8 8 8 9 9 9 9 9 9 9 9 9 8 8 8 7 7 6 6 5 5 5 4 4 4 3 3 2 2 1 1 1 1 2 2 1 1 1 1 1 2
8 9 9 9 9 9 8 8 9 9 9 8 8 8 8 8 8 7 7 7 6 5 5 5 4 4 4 3 3 2 1 1 1 1 1 1 1 1 1 0 0 1 1
9 9 9 9 9 9 8 8 8 8 8 8 8 8 8 7 7 7 7 7 6 5 5 4 4 3 3 3 2 1 1 0 0 0 0 0 1 0 0 -0 -1 -1 -0
9 10 9 8 8 8 8 8 8 7 7 7 7 8 8 7 7 6 6 6 5 5 4 4 4 4 4 4 3 2 1 1 0 -0 -0 -0 -0 -0 -0 -0 -1 -1 -0
9 9 8 8 8 8 8 7 7 7 7 7 6 6 7 7 7 6 6 5 4 3 3 3 3 4 4 4 3 3 1 1 0 -0 0 -1 -1 -1 -1 -1 -1 -1 -1
8 9 8 8 8 7 7 6 6 6 6 6 6 5 6 6 6 6 5 4 4 3 2 1 1 2 4 4 4 3 1 1 0 0 -0 -1 -1 -1 -1 -1 -1 -1 -2
8 8 7 7 7 7 6 6 6 6 6 5 5 4 4 4 4 5 5 4 3 1 1 1 0 1 2 3 3 3 2 1 1 0 -0 -1 -1 -1 -1 -1 -1 -2 -2
7 7 7 6 6 6 6 6 5 5 5 4 4 4 3 3 3 3 3 3 4 3 2 2 1 1 0 2 3 3 3 2 1 0 -1 -2 -2 -2 -1 -2 -2 -2 -3
7 7 7 6 6 6 6 6 5 5 4 4 3 3 3 2 2 2 2 3 3 3 3 4 3 3 3 2 2 2 1 1 -0 -1 -1 -2 -2 -2 -2 -2 -3 -3 -3
Height
811 806 804 802 803 805 807 808 808 808 807 807 806 802 800 798 797 798 797 795 793 791 789 787 785 783 782 781 780 779 778 776 775 772 769 767 765 764 763 763 763 763 763
815 811 808 806 806 806 804 803 803 803 802 804 805 805 802 799 795 795 795 794 791 790 787 785 783 781 779 778 778 777 776 774 773 772 770 767 763 760 760 760 760 760 759
818 814 811 809 806 806 806 803 802 803 802 801 800 801 800 799 794 792 792 791 790 788 786 784 781 779 777 776 776 775 775 773 772 771 772 767 764 762 759 758 757 757 756
816 814 813 811 809 805 804 804 801 800 800 800 798 796 797 796 792 790 790 789 788 786 784 782 779 777 776 775 774 774 773 772 770 769 769 769 768 764 758 756 755 754 754
814 813 812 810 807 805 803 801 799 798 797 797 795 794 795 793 789 789 787 787 785 784 782 780 779 777 775 774 772 772 771 770 769 768 767 766 764 763 762 758 754 752 751
816 812 809 806 804 802 800 798 796 795 795 794 793 792 792 789 787 786 785 784 783 781 780 779 778 776 774 773 771 770 769 768 767 766 766 765 764 762 761 760 755 752 746
817 813 809 806 803 800 797 794 793 791 791 790 790 789 788 786 784 783 782 781 780 778 777 776 775 773 772 771 770 769 767 765 764 763 762 761 760 759 758 757 754 751 744
817 812 808 804 801 797 794 791 789 787 787 786 785 785 784 783 782 781 779 778 777 775 774 773 772 771 770 768 767 766 764 762 760 759 758 757 755 755 754 753 751 748 744
815 811 806 803 799 795 792 789 787 785 783 782 781 781 781 780 779 778 776 774 773 772 770 769 768 767 766 765 764 763 761 759 757 755 754 753 750 750 749 748 747 746 743
812 808 804 800 797 793 790 787 785 782 781 780 778 778 778 777 776 775 774 773 771 770 768 767 765 764 763 762 761 759 757 756 754 752 750 749 747 745 744 743 742 741 739
811 806 802 799 796 792 788 784 781 779 777 776 775 775 774 774 773 772 771 769 768 767 766 764 763 761 760 759 757 756 754 753 751 749 747 745 743 742 741 739 738 736 735
808 803 799 796 793 790 785 782 778 776 774 772 771 770 770 769 769 768 767 766 765 764 763 762 761 760 758 757 755 753 752 751 749 747 744 742 741 738 737 735 733 732 731
805 801 797 794 791 787 783 780 776 773 771 769 768 767 766 766 765 764 763 762 761 760 758 758 757 755 754 753 751 750 748 746 745 744 742 741 739 736 734 732 729 727 725
803 799 796 792 788 785 781 777 773 771 768 766 765 763 762 762 761 760 759 759 758 756 755 753 752 751 750 748 747 745 744 743 741 739 738 737 735 733 730 727 725 722 720
801 798 794 790 786 782 778 774 771 768 765 762 760 758 758 758 757 756 755 754 753 752 751 749 748 747 746 744 743 742 740 738 737 735 732 731 730 727 725 723 719 718 715
801 796 793 789 785 781 776 772 768 764 761 758 756 754 753 752 751 750 750 749 747 747 746 745 743 742 741 740 739 738 736 735 732 731 729 727 725 723 720 718 716 713 709
798 795 791 787 783 779 775 770 766 762 758 755 753 751 749 748 746 746 745 744 743 742 741 740 739 737 737 736 736 734 733 731 730 727 725 723 722 718 716 712 710 708 705
794 791 788 785 781 776 771 767 764 760 756 753 751 749 747 744 742 741 740 739 738 738 737 735 734 733 732 731 730 729 728 726 724 723 722 719 717 715 713 709 706 703 701
793 790 786 782 777 774 770 766 761 757 754 751 748 746 744 741 739 737 735 734 733 732 731 730 728 726 724 725 724 723 722 720 719 718 717 715 713 711 709 706 702 698 696
789 787 784 781 777 772 769 764 760 756 752 749 746 743 741 737 735 732 730 728 727 725 724 722 722 722 720 720 719 719 717 716 714 713 711 710 709 708 706 703 700 697 693
785 783 780 778 775 771 767 763 760 755 752 748 744 740 737 734 731 728 725 723 721 719 716 714 713 712 712 711 710 710 709 708 707 706 705 704 704 703 701 700 697 694 692
783 781 778 775 772 770 766 762 758 753 749 745 741 737 733 729 727 724 720 719 716 714 711 710 707 704 703 703 703 702 702 701 701 699 699 698 699 698 697 695 692 690 688
781 779 775 770 767 765 763 759 755 750 745 740 737 734 730 727 723 719 715 712 710 708 706 704 701 697 694 694 695 695 696 697 696 695 695 694 694 693 691 691 689 688 685
775 774 771 767 763 761 758 756 752 749 745 739 734 730 726 722 718 715 712 708 705 702 700 697 694 690 687 686 686 687 687 689 690 690 690 689 689 688 686 685 685 685 682
770 769 768 765 761 757 754 751 748 745 741 737 731 726 722 718 713 709 706 702 698 696 693 689 686 684 680 678 678 678 679 680 682 685 685 684 683 682 680 680 680 681 679
765 764 762 760 756 753 748 745 742 741 737 731 727 723 718 714 711 705 698 697 692 689 685 681 680 675 672 673 673 672 673 674 677 679 677 677 678 677 676 675 675 675 675
Wind_Speed
13 18 18 20 15 6 0 3 4 7 10 13 14 10 11 11 10 12 10 11 13 16 15 15 16 16 16 15 14 17 16 15 15 17 20 18 21 21 22 24 25 26 27
9 12 9 7 4 2 4 5 8 9 8 11 13 14 16 12 14 12 10 15 14 14 13 14 17 18 18 18 14 14 15 14 15 12 14 3 8 12 14 16 12 13 15
6 6 4 1 5 6 9 8 8 9 11 11 12 13 14 14 11 11 15 14 13 14 15 16 16 17 17 14 12 13 13 13 15 14 6 3 2 8 15 20 21 18 20
4 4 8 7 6 6 7 9 9 11 13 13 14 13 14 16 15 15 16 14 13 12 14 17 14 13 12 11 11 11 12 14 12 15 10 12 12 3 5 7 17 18 16
5 5 8 7 8 8 9 10 12 14 14 15 15 14 16 15 15 16 15 13 11 13 15 13 12 13 13 13 13 14 14 13 13 16 16 17 17 17 2 5 5 25 23
8 10 12 10 11 10 11 11 12 15 15 16 16 17 17 16 16 16 15 14 13 14 12 12 11 11 11 13 14 14 14 15 14 17 19 16 8 8 4 3 4 8 19
8 8 9 14 16 15 15 14 14 17 16 17 18 18 17 15 15 15 14 14 15 15 11 11 11 12 12 12 12 13 15 15 16 18 20 20 20 19 18 11 7 4 19
8 8 12 17 19 20 20 18 16 19 18 19 20 19 17 17 16 14 14 14 16 15 13 12 12 13 12 12 12 14 15 14 13 16 19 22 22 20 21 16 9 7 6
8 8 15 18 21 22 21 17 19 20 18 18 19 19 18 17 17 15 15 15 15 15 14 13 11 12 14 14 14 15 15 16 18 19 20 19 19 21 22 21 21 9 8
9 8 13 18 21 22 20 18 17 17 19 19 17 18 18 17 16 16 17 16 15 14 15 15 12 12 13 13 14 15 15 15 16 16 16 18 16 17 18 19 21 22 15
9 8 13 16 17 20 21 20 18 17 16 14 16 17 19 17 16 17 17 16 15 15 16 15 15 12 12 13 14 15 15 14 15 18 18 19 19 18 16 18 19 16 16
8 8 12 14 17 20 22 21 19 18 17 17 17 18 19 18 18 18 17 15 16 15 15 15 15 15 14 13 13 13 13 15 15 15 15 17 16 18 18 18 18 18 19
9 8 11 14 17 24 23 21 20 19 18 16 17 18 19 19 19 19 17 16 16 16 15 15 16 15 16 16 15 15 15 15 16 19 19 19 19 19 19 19 19 19 18
8 7 7 11 20 24 26 24 23 19 18 17 18 20 20 20 20 19 19 18 18 17 16 16 15 16 16 15 15 16 16 16 19 19 17 18 18 19 21 19 20 20 18
8 8 8 10 20 22 25 28 23 21 21 18 17 20 19 19 19 20 20 19 18 18 18 18 17 16 16 15 13 14 16 17 19 18 15 16 17 21 22 22 20 21 20
8 11 10 16 16 21 23 26 26 26 24 20 20 19 18 19 20 21 21 21 20 19 18 18 18 18 17 16 14 14 16 17 16 19 17 16 17 16 17 15 15 14 15
9 11 11 16 20 23 27 27 23 24 23 22 20 20 19 20 21 21 22 23 23 21 21 20 19 19 18 16 14 13 16 18 18 16 17 16 15 17 15 17 18 21 19
8 9 15 18 23 27 26 25 27 24 23 22 20 20 21 22 22 21 22 23 23 23 23 22 20 20 19 17 15 13 16 18 17 17 15 17 17 14 14 17 18 19 19
10 14 19 21 23 23 24 23 24 25 26 25 23 22 21 22 23 24 24 24 23 23 24 23 22 21 22 18 17 16 18 19 18 16 13 15 15 14 12 14 14 15 16
15 17 19 22 24 25 24 23 25 25 26 27 27 25 23 21 23 26 27 27 25 25 23 24 23 23 24 20 18 15 17 19 20 17 15 13 14 14 14 14 13 14 14
13 16 18 20 23 26 26 26 28 27 30 29 29 28 26 25 24 26 26 26 26 25 26 26 26 25 24 22 19 17 18 20 20 19 18 14 13 13 12 13 14 13 16
15 16 19 21 21 20 21 23 25 27 30 31 32 31 30 28 27 26 28 26 24 25 28 28 30 30 27 23 22 21 21 19 20 21 18 16 14 14 15 14 12 12 11
14 17 17 22 20 17 15 20 24 25 27 30 31 31 32 30 29 27 28 28 27 25 25 22 22 28 30 25 23 22 21 20 21 22 20 16 14 15 15 15 14 12 12
13 16 18 21 23 22 17 17 23 24 26 27 28 28 26 26 26 27 28 27 26 23 22 21 22 25 28 30 25 24 23 21 21 21 18 17 15 15 14 12 12 13 11
15 14 17 19 21 23 26 26 25 23 26 25 23 23 23 26 28 28 26 26 29 29 26 27 27 22 22 29 25 25 26 25 23 20 17 16 15 14 11 11 12 11 10
17 17 20 19 23 26 28 27 27 28 27 26 23 25 25 25 27 26 29 28 28 29 32 35 34 35 34 30 22 20 20 20 17 16 19 18 17 15 13 12 12 11 11
Wind_Direction
321 11 77 89 93 98 234 289 263 277 294 309 312 312 315 317 322 325 325 314 313 313 314 316 311 307 303 310 317 311 318 316 316 313 312 306 295 294 286 285 288 290 288
5 58 84 95 100 216 219 227 241 252 269 295 303 308 313 312 319 323 316 313 315 322 320 312 309 308 304 297 310 316 317 314 311 306 314 314 314 279 291 287 295 330 316
2 351 9 187 192 219 229 236 253 261 287 286 287 297 305 303 317 324 320 325 325 322 312 313 314 315 313 306 305 308 311 312 308 301 275 310 310 330 307 306 309 311 316
342 339 322 322 303 284 261 253 257 277 281 278 280 293 296 301 317 321 319 321 324 316 313 320 328 339 335 328 317 314 299 305 301 311 308 302 297 302 309 299 302 306 312
257 268 264 275 291 297 292 282 280 281 276 271 276 285 287 295 310 315 316 320 320 319 314 324 334 333 335 327 321 315 308 299 306 307 313 311 308 307 270 305 316 310 306
302 290 270 259 269 271 269 281 281 282 278 273 276 279 285 300 308 315 317 321 312 323 313 319 318 320 316 321 319 311 305 302 298 293 303 300 292 294 285 273 297 290 307
342 330 328 311 293 276 272 268 268 275 278 270 268 270 283 289 296 301 305 306 304 313 308 309 307 306 308 303 303 298 300 297 294 292 294 296 292 292 291 287 285 273 299
325 326 325 331 329 320 306 279 265 269 270 265 262 259 275 284 288 289 293 289 293 303 308 307 302 299 301 300 299 292 289 293 299 299 291 293 287 288 288 278 276 292 285
313 311 319 325 324 323 315 321 291 281 272 270 265 257 271 278 282 286 285 286 287 289 299 298 295 300 301 301 297 297 295 296 298 301 302 309 300 290 289 287 284 263 292
316 314 319 325 331 334 327 314 309 305 290 273 264 259 268 279 280 285 286 288 290 289 291 300 301 291 289 292 292 293 292 294 298 303 309 308 312 316 302 295 289 285 268
300 299 310 325 334 338 342 327 316 311 306 283 269 268 273 279 279 282 287 291 291 289 290 294 295 301 299 301 300 300 303 307 300 300 308 309 313 311 305 303 302 306 285
292 296 309 318 327 335 333 333 321 310 305 292 274 270 271 273 277 279 286 290 289 293 294 294 295 294 296 298 300 303 305 305 306 314 317 314 314 311 308 304 299 294 290
315 314 317 315 327 336 331 326 321 314 306 297 278 273 269 274 278 283 286 287 287 290 292 292 293 294 293 293 292 292 291 289 290 301 305 306 310 303 297 297 289 286 284
304 302 314 319 327 332 330 334 328 316 311 298 284 276 280 283 285 286 285 286 290 291 293 293 291 291 294 294 295 294 294 289 290 301 297 298 296 295 292 292 291 283 278
322 320 314 314 321 327 332 336 334 335 319 298 288 286 290 288 288 286 286 287 288 289 292 294 293 294 294 296 298 298 298 301 304 302 302 298 295 302 298 290 287 280 277
322 322 319 322 322 323 325 332 330 330 329 306 283 293 288 292 289 287 285 285 285 286 287 288 289 290 289 290 286 284 289 297 300 304 308 296 299 298 310 315 310 301 293
321 324 327 323 323 324 327 330 335 334 332 328 300 288 286 291 294 292 285 282 282 284 283 284 286 288 289 290 288 286 283 295 302 300 300 300 299 301 310 312 310 308 296
323 325 320 324 327 336 339 335 338 342 343 339 326 314 300 290 295 293 287 285 283 281 283 285 286 288 288 288 284 276 276 287 294 297 291 293 298 295 311 318 321 317 312
305 310 326 333 338 345 346 341 344 349 350 347 341 335 324 309 297 290 291 291 286 282 278 279 277 277 280 280 279 274 273 280 288 296 287 289 293 296 304 315 317 320 320
317 322 332 338 342 346 345 344 347 346 348 344 336 333 327 314 302 300 298 294 284 283 281 279 278 282 283 287 284 275 272 274 283 291 284 280 279 290 298 305 308 308 314
312 328 332 334 336 340 339 340 340 338 341 342 340 334 326 322 314 304 299 296 286 282 276 273 275 275 274 276 269 261 252 258 272 277 285 286 270 279 284 292 293 295 312
324 333 329 329 334 338 334 334 336 338 338 338 339 340 337 330 320 314 307 299 289 282 279 279 279 277 275 270 266 259 243 248 252 264 278 286 279 279 288 283 283 288 296
314 321 318 322 328 335 335 326 332 335 336 336 335 335 336 335 329 319 311 302 297 283 272 265 265 273 279 272 260 255 244 245 248 261 273 279 280 280 279 281 281 282 288
305 310 311 315 314 328 325 325 331 331 330 331 331 329 324 323 323 320 314 301 287 273 263 260 260 265 272 277 265 251 241 243 244 250 256 264 274 278 276 277 268 269 277
299 301 303 302 306 322 325 330 329 327 325 325 322 326 328 325 321 316 309 301 296 284 271 266 264 261 265 272 281 267 251 246 244 247 252 257 271 276 265 257 269 265 267
299 304 311 307 311 317 319 322 328 327 323 320 319 322 322 322 317 315 314 310 302 300 287 286 274 275 276 278 270 266 251 248 233 233 242 247 260 264 259 256 254 259 259